Wind_Speed
29 31 31 27 25 26 27 32 37 37 35 33 33 34 37 40 39 34 33 36 36 36 37 33 29 29 31 30 27 25 24 24 24 23 23 24 24 24 26 27 26 23
27 28 30 28 26 26 26 28 35 39 37 35 34 35 38 40 39 36 34 36 37 35 35 34 32 30 32 34 32 26 25 27 27 27 25 24 23 24 24 25 26 25
24 25 28 30 30 29 27 27 31 34 35 36 36 36 38 39 38 36 33 33 32 31 31 33 34 34 31 32 32 30 28 30 29 28 26 24 24 25 24 24 25 25
23 23 25 28 31 32 31 30 30 29 30 34 36 36 35 36 36 34 30 25 26 29 32 34 36 35 32 31 32 32 31 30 29 27 25 24 24 25 26 26 26 25
23 24 25 26 29 32 33 33 31 28 27 29 33 35 34 35 35 31 24 20 23 27 29 31 31 30 31 35 36 34 32 31 30 28 26 25 24 25 27 27 28 27
22 25 26 26 27 30 35 37 35 33 30 29 31 33 35 37 36 30 22 20 23 25 24 24 23 23 29 35 37 37 35 33 31 30 28 27 26 25 26 27 28 28
21 25 27 26 26 28 33 39 40 39 37 33 32 33 35 37 36 31 25 23 24 24 24 23 20 20 26 34 38 39 38 35 33 32 30 29 29 27 28 29 28 28
18 22 25 27 28 27 29 33 37 41 42 39 36 34 34 35 35 32 28 26 25 24 24 24 21 20 25 32 38 41 39 36 34 34 33 32 31 31 30 31 31 30
16 17 22 25 27 27 28 28 31 36 42 44 41 37 34 33 32 31 28 27 28 26 25 25 23 22 25 30 36 41 41 38 35 34 35 35 34 34 33 32 33 32
14 15 18 22 23 25 28 29 29 30 37 43 44 41 38 36 34 33 31 31 32 30 28 27 25 23 25 30 35 39 41 40 36 33 35 37 37 36 36 35 35 34
16 14 15 18 22 24 27 30 30 29 32 40 44 45 44 41 40 37 34 33 33 32 30 29 28 26 27 31 36 38 38 40 38 34 33 36 38 38 38 38 37 36
20 17 15 16 19 23 26 29 32 30 30 34 41 45 45 44 43 40 36 33 30 30 30 30 30 29 29 32 38 39 38 38 39 35 32 33 37 39 40 40 39 38
22 21 18 16 18 21 24 27 31 31 28 29 33 35 37 40 42 41 37 33 31 31 32 33 33 32 32 34 38 41 39 38 39 37 34 33 35 38 40 42 41 40
23 23 22 19 17 18 21 24 29 30 28 28 30 31 33 37 40 38 35 34 33 33 35 37 36 35 35 36 39 41 40 40 39 38 36 36 36 37 39 41 42 41
21 23 25 23 19 18 20 24 28 30 28 28 30 33 35 36 37 36 33 33 34 34 36 38 38 38 38 37 37 37 38 39 40 39 38 38 38 38 38 39 40 41
18 20 23 23 23 21 20 22 25 29 30 28 28 31 33 34 35 35 34 34 35 37 39 40 39 39 40 39 37 36 36 38 40 39 39 40 39 39 39 39 38 39
16 17 19 19 22 23 21 21 23 26 28 28 27 29 31 33 34 36 37 37 38 39 40 41 41 41 41 40 39 39 38 39 41 41 40 40 40 39 40 39 37 37
17 18 20 20 21 21 22 25 25 25 26 26 26 27 29 31 34 36 38 39 40 41 41 41 41 42 43 41 40 41 40 39 41 42 41 41 41 40 40 40 39 37
16 18 19 21 21 21 22 25 27 27 26 25 25 27 29 30 32 34 37 40 41 41 42 43 43 41 42 43 42 42 40 38 39 42 42 42 43 42 41 42 43 41
16 16 18 20 20 21 21 22 25 27 27 25 25 27 29 30 31 32 34 39 43 44 43 44 45 41 39 42 45 44 42 39 38 41 43 44 44 44 43 43 44 44
17 16 17 19 20 21 21 21 22 24 26 26 26 27 27 27 30 32 33 33 38 43 45 45 46 43 39 40 44 45 43 40 38 38 42 46 47 46 45 45 45 46
20 20 20 20 20 21 22 21 20 21 23 25 26 26 27 26 28 31 33 34 35 38 43 46 47 46 44 42 43 43 43 44 43 41 42 46 50 49 47 46 46 47
22 23 22 21 20 21 22 21 19 19 20 23 24 24 25 26 27 29 30 33 35 33 32 37 43 47 48 47 46 47 48 50 52 51 48 48 51 52 49 47 47 48
22 22 22 22 21 21 22 21 19 18 18 20 21 22 24 25 26 27 27 28 31 31 29 28 33 39 44 46 49 52 54 55 57 57 55 53 53 54 52 49 47 48
20 22 23 22 21 20 22 22 20 19 18 18 19 19 21 22 23 24 25 26 27 30 31 29 27 29 33 37 42 48 53 57 59 61 60 57 55 55 55 52 49 48
19 21 22 22 22 21 21 21 20 19 18 18 19 18 18 20 21 22 24 25 25 27 30 29 29 30 29 28 30 35 41 49 56 61 61 58 57 56 53 52 51 50
Wind_Direction
239 239 242 237 229 230 234 237 238 237 233 229 229 228 228 226 223 221 217 208 210 219 220 216 210 204 204 207 204 204 209 211 213 215 216 218 222 223 224 221 219 222
246 242 242 238 231 229 232 239 241 238 233 229 230 232 231 229 224 220 217 210 209 216 218 216 215 209 205 205 205 207 212 214 211 207 206 210 213 214 219 219 216 217
258 253 244 238 235 234 236 239 240 239 236 233 233 234 233 230 226 221 217 212 213 219 218 217 221 219 212 209 212 215 217 215 210 206 205 206 204 202 205 209 210 210
264 260 253 247 243 242 241 238 237 238 239 238 236 236 235 233 230 225 218 212 215 220 220 220 223 222 219 217 218 219 218 216 213 210 210 209 206 202 202 203 205 205
272 267 262 259 252 245 240 237 237 238 238 239 240 240 239 237 236 232 223 216 218 220 221 224 228 228 227 226 226 224 220 217 214 212 212 211 210 208 206 206 206 207
276 274 267 263 259 249 241 239 239 239 238 241 245 245 244 243 243 244 239 228 225 225 224 223 224 230 235 234 232 230 224 218 213 211 212 214 214 211 209 209 209 210
275 275 273 269 263 255 248 245 242 240 240 245 249 250 248 246 245 246 245 236 231 229 225 216 212 222 234 237 236 234 229 222 215 211 212 214 216 214 213 213 210 209
283 274 274 272 265 260 259 255 249 244 241 244 250 252 251 249 244 241 241 240 237 231 224 220 220 223 229 235 237 235 232 225 216 212 212 213 215 216 217 218 214 210
300 287 277 272 269 267 266 265 259 251 245 244 248 251 250 249 244 239 239 241 238 231 227 227 229 227 224 229 234 236 234 228 218 213 214 214 215 217 218 219 217 213
298 305 290 279 278 277 272 269 266 259 250 245 245 247 248 247 245 244 243 244 239 233 231 232 231 230 225 225 230 234 234 231 221 214 215 216 217 219 220 220 219 216
286 304 305 293 286 283 279 273 270 265 256 249 245 245 246 247 249 248 242 241 240 234 236 237 234 234 231 228 230 232 232 231 226 218 216 217 218 220 221 222 222 221
283 289 302 301 289 283 283 280 274 267 257 250 244 242 243 246 249 247 238 238 239 232 234 237 232 232 233 230 231 232 232 232 229 222 217 216 218 221 223 223 224 225
284 280 287 298 292 281 280 285 283 274 262 253 247 243 246 247 245 243 238 235 235 230 232 235 230 229 232 231 231 233 233 233 231 225 218 215 216 220 223 224 225 226
289 281 278 287 295 289 285 289 289 284 277 271 262 254 252 246 240 240 237 232 231 230 231 232 229 228 232 234 235 237 236 233 231 227 220 216 217 220 222 224 225 226
304 297 287 283 287 296 300 296 289 286 285 281 270 260 254 246 239 240 237 229 227 228 229 230 229 228 232 235 238 242 241 233 228 227 223 220 219 221 222 223 223 224
309 307 301 292 283 283 295 299 292 285 282 282 277 269 262 254 248 245 240 231 226 227 229 230 231 230 229 229 233 240 243 236 230 228 226 224 223 222 222 221 221 222
308 299 299 299 288 279 281 290 294 289 282 279 278 275 268 260 253 248 242 235 229 227 228 230 231 230 227 224 226 233 241 241 238 233 229 228 226 224 222 220 219 221
315 304 297 295 291 284 278 277 281 286 287 280 274 275 273 263 254 250 246 240 233 229 229 231 230 228 225 222 221 226 234 242 243 240 235 231 228 225 223 221 219 221
320 320 316 308 300 293 284 276 273 275 283 283 278 279 280 272 263 257 251 245 238 232 233 233 229 226 226 225 223 225 231 238 243 244 240 234 230 227 226 223 222 222
319 324 327 323 314 303 295 289 281 274 275 278 277 276 277 276 273 267 258 249 241 235 235 235 231 229 230 227 223 224 229 236 241 244 243 239 233 230 228 227 225 224
325 327 329 328 325 318 307 298 291 284 280 278 275 273 273 273 272 270 267 264 254 243 239 238 234 230 231 229 223 223 229 234 236 240 242 241 237 234 233 231 228 226
335 335 334 330 327 325 320 310 299 293 292 289 284 280 278 276 274 271 270 272 270 256 243 240 237 232 229 228 227 227 229 231 232 237 241 240 239 237 236 235 232 229
340 333 332 330 328 325 325 323 313 301 298 300 299 296 292 285 280 278 273 270 272 268 254 245 242 237 233 231 232 232 230 230 232 236 238 238 238 239 238 237 235 231
343 335 333 330 326 325 327 331 329 318 308 306 305 305 305 300 292 285 279 271 269 273 272 261 252 246 241 236 237 237 234 232 233 235 235 233 234 236 237 237 237 233
351 340 336 332 329 330 331 330 326 321 316 313 309 307 306 306 300 292 285 277 270 270 272 271 267 263 254 243 241 243 242 239 236 234 234 232 230 231 234 236 236 233
357 340 337 339 337 332 326 323 323 325 326 323 318 317 313 305 297 291 290 288 282 276 274 273 272 274 272 264 259 259 258 251 241 235 233 231 229 228 229 232 235 234
Height
1493 1497 1497 1499 1500 1497 1496 1497 1499 1498 1497 1497 1498 1501 1505 1508 1508 1507 1505 1507 1510 1511 1513 1516 1518 1519 1521 1522 1524 1527 1530 1533 1534 1537 1540 1543 1546 1548 1550 1551 1552 1552
1490 1494 1494 1495 1495 1494 1493 1495 1496 1496 1494 1494 1496 1499 1501 1503 1504 1503 1501 1503 1506 1509 1510 1513 1516 1516 1517 1517 1518 1518 1518 1519 1521 1524 1528 1532 1536 1540 1544 1547 1549 1550
1487 1489 1489 1490 1490 1489 1490 1491 1492 1492 1491 1491 1493 1496 1497 1499 1500 1500 1499 1500 1504 1508 1510 1513 1514 1514 1516 1518 1519 1518 1517 1518 1520 1522 1524 1525 1528 1531 1535 1539 1542 1545
1484 1485 1485 1485 1485 1486 1487 1487 1488 1489 1489 1490 1491 1492 1494 1496 1498 1498 1497 1497 1501 1504 1507 1510 1513 1515 1517 1519 1519 1519 1519 1520 1522 1524 1526 1526 1527 1528 1531 1533 1535 1537
1481 1481 1481 1481 1481 1482 1483 1483 1484 1485 1487 1488 1489 1490 1491 1493 1495 1496 1496 1496 1498 1500 1503 1507 1512 1516 1518 1518 1518 1519 1519 1518 1519 1522 1524 1525 1526 1528 1529 1532 1533 1534
1479 1478 1478 1479 1478 1478 1479 1480 1481 1482 1484 1485 1487 1487 1489 1490 1490 1493 1495 1495 1496 1498 1501 1503 1507 1513 1515 1516 1517 1518 1517 1516 1516 1518 1521 1523 1524 1526 1527 1529 1531 1533
1477 1476 1476 1477 1476 1476 1476 1477 1478 1480 1481 1483 1484 1484 1485 1486 1487 1489 1491 1493 1494 1496 1498 1499 1500 1505 1510 1512 1514 1515 1514 1513 1513 1514 1517 1519 1522 1524 1525 1526 1527 1529
1475 1475 1474 1474 1474 1474 1474 1475 1475 1476 1478 1480 1481 1481 1482 1483 1484 1486 1488 1491 1492 1494 1496 1498 1497 1499 1504 1507 1509 1511 1512 1511 1509 1509 1512 1515 1518 1520 1522 1524 1524 1525
1472 1473 1473 1472 1472 1473 1472 1472 1472 1473 1475 1477 1478 1479 1480 1481 1482 1484 1486 1488 1491 1493 1494 1495 1495 1496 1500 1502 1504 1507 1508 1507 1506 1505 1507 1509 1512 1515 1518 1520 1522 1522
1469 1469 1471 1471 1471 1471 1470 1469 1470 1471 1472 1474 1475 1476 1476 1478 1479 1481 1484 1485 1488 1491 1493 1492 1492 1494 1496 1498 1500 1503 1504 1504 1503 1501 1502 1504 1507 1510 1513 1515 1517 1519
1467 1467 1467 1468 1469 1469 1468 1467 1468 1469 1470 1471 1472 1473 1473 1474 1476 1478 1480 1481 1484 1488 1490 1490 1490 1491 1493 1495 1497 1499 1500 1501 1500 1498 1498 1499 1502 1505 1507 1510 1513 1514
1466 1465 1465 1465 1466 1467 1466 1465 1465 1467 1469 1469 1470 1471 1473 1473 1473 1474 1476 1476 1479 1484 1486 1486 1487 1488 1490 1492 1493 1495 1496 1497 1497 1496 1495 1495 1498 1500 1503 1505 1508 1510
1464 1464 1463 1462 1463 1463 1464 1464 1462 1462 1464 1465 1467 1470 1473 1473 1471 1471 1472 1472 1474 1477 1479 1481 1483 1484 1486 1488 1489 1491 1492 1493 1493 1493 1493 1492 1494 1496 1498 1500 1503 1506
1462 1462 1462 1461 1460 1460 1461 1461 1461 1459 1459 1461 1463 1465 1468 1470 1468 1467 1467 1468 1469 1471 1473 1476 1478 1480 1482 1484 1486 1487 1489 1490 1490 1490 1489 1489 1490 1492 1493 1495 1498 1501
1460 1460 1460 1460 1459 1458 1458 1458 1458 1458 1458 1459 1459 1459 1461 1462 1462 1462 1462 1463 1465 1467 1469 1471 1474 1476 1478 1481 1484 1485 1486 1486 1486 1486 1486 1486 1487 1488 1489 1491 1493 1495
1459 1459 1459 1458 1458 1457 1456 1456 1455 1455 1455 1456 1456 1456 1456 1457 1457 1457 1457 1459 1462 1464 1465 1467 1469 1471 1473 1476 1480 1483 1483 1483 1483 1483 1483 1483 1483 1484 1486 1487 1488 1490
1457 1457 1456 1456 1456 1455 1454 1454 1453 1452 1452 1453 1453 1453 1454 1454 1453 1453 1454 1455 1457 1459 1461 1462 1464 1466 1469 1471 1474 1478 1480 1480 1480 1480 1480 1480 1480 1481 1481 1482 1484 1485
1455 1454 1454 1454 1454 1453 1453 1451 1450 1450 1451 1452 1451 1451 1452 1452 1451 1451 1451 1452 1453 1454 1456 1457 1458 1461 1463 1466 1468 1471 1474 1476 1477 1477 1477 1476 1476 1477 1477 1479 1480 1481
1453 1452 1452 1452 1452 1451 1451 1449 1448 1448 1449 1449 1449 1450 1450 1450 1450 1450 1450 1449 1449 1450 1451 1452 1453 1455 1458 1461 1463 1466 1469 1471 1472 1473 1473 1473 1473 1473 1474 1475 1476 1477
1452 1451 1451 1451 1450 1449 1448 1447 1445 1445 1445 1445 1445 1446 1446 1446 1447 1449 1449 1448 1447 1447 1448 1449 1449 1450 1452 1455 1458 1460 1463 1465 1467 1468 1468 1468 1468 1469 1470 1471 1472 1474
1452 1450 1450 1449 1448 1447 1445 1444 1443 1442 1442 1441 1441 1442 1442 1443 1443 1444 1445 1445 1444 1445 1445 1446 1446 1447 1448 1450 1453 1455 1457 1459 1461 1462 1463 1463 1464 1464 1466 1467 1468 1470
1451 1450 1448 1447 1446 1445 1443 1442 1441 1440 1439 1438 1438 1438 1439 1439 1439 1439 1440 1441 1441 1442 1441 1441 1442 1444 1445 1446 1448 1451 1452 1454 1455 1457 1458 1458 1459 1459 1461 1462 1464 1465
1451 1449 1447 1446 1445 1443 1442 1440 1438 1438 1437 1436 1435 1435 1435 1436 1435 1436 1436 1437 1437 1437 1436 1436 1438 1440 1442 1444 1445 1446 1447 1447 1448 1450 1452 1453 1453 1454 1455 1457 1459 1460
1450 1449 1446 1445 1443 1442 1440 1438 1436 1436 1435 1434 1433 1432 1432 1432 1432 1432 1432 1433 1433 1432 1431 1433 1435 1437 1438 1440 1441 1441 1442 1441 1442 1445 1446 1447 1447 1449 1450 1451 1453 1455
1448 1448 1446 1444 1442 1440 1439 1437 1435 1434 1433 1432 1431 1430 1430 1430 1429 1429 1429 1429 1429 1428 1428 1429 1431 1433 1434 1436 1437 1437 1437 1437 1439 1440 1440 1441 1442 1444 1445 1446 1447 1450
1447 1447 1446 1443 1441 1439 1437 1436 1434 1432 1431 1430 1429 1428 1428 1428 1428 1427 1426 1425 1425 1425 1424 1424 1426 1427 1429 1431 1432 1433 1433 1433 1435 1436 1436 1436 1438 1439 1440 1440 1442 1445